DW8356 Weather Reports


Display with metric or nautical units.
time (UTC)temp
F
wind
direction
speed
MPH
gust
MPH
rain 1hr
in
rain 24hr
in
rain mn
in
humidity
%
barometer
mb
20260506165023 54 25 4.0 15.0 0.00 0.15 0.15 87 1014.9
20260506164540 53 329 3.0 9.0 0.00 0.15 0.15 87 1015.2
20260506164022 53 63 4.0 9.0 0.06 0.15 0.15 87 1015.5
20260506163522 53 5 3.0 8.0 0.13 0.15 0.15 87 1015.6
20260506163106 53 32 3.0 9.0 0.15 0.15 0.15 87 1015.7
20260506162520 53 15 3.0 10.0 0.15 0.15 0.15 87 1015.8
20260506162020 53 360 4.0 10.0 0.15 0.15 0.15 87 1015.5
20260506161538 53 24 3.0 10.0 0.15 0.15 0.15 87 1015.1
20260506161020 53 119 4.0 14.0 0.15 0.15 0.15 88 1014.9
20260506160520 53 344 5.0 14.0 0.15 0.15 0.15 88 1014.0
20260506160039 53 34 6.0 13.0 0.15 0.15 0.15 87 1013.5
20260506155520 53 15 5.0 13.0 0.15 0.15 0.15 88 1014.0
20260506155023 53 352 3.0 9.0 0.15 0.15 0.15 86 1014.3
20260506154539 53 72 5.0 9.0 0.14 0.14 0.14 85 1014.5
20260506154021 53 352 5.0 9.0 0.07 0.07 0.07 83 1015.5
20260506153521 54 10 2.0 9.0 0.02 0.02 0.02 81 1016.6
20260506153034 54 294 4.0 9.0 0.00 0.00 0.00 80 1017.0
20260506152521 54 223 1.0 10.0 0.00 0.00 0.00 79 1016.4
20260506152021 54 352 3.0 10.0 0.00 0.00 0.00 78 1016.1
20260506151537 54 263 3.0 8.0 0.00 0.00 0.00 78 1015.2
20260506151024 54 317 2.0 11.0 0.00 0.00 0.00 78 1015.4
20260506150520 54 327 3.0 11.0 0.00 0.00 0.00 78 1014.5
20260506150039 54 37 5.0 11.0 0.00 0.00 0.00 78 1014.5
20260506145522 54 40 3.0 9.0 0.00 0.00 0.00 78 1015.2
20260506145023 54 315 4.0 12.0 0.00 0.00 0.00 78 1014.9
20260506144546 54 348 6.0 12.0 0.00 0.00 0.00 78 1014.6
20260506144020 54 62 4.0 11.0 0.00 0.00 0.00 78 1015.1
20260506143521 54 32 5.0 10.0 0.00 0.00 0.00 78 1015.3
20260506143038 54 46 5.0 10.0 0.00 0.00 0.00 78 1015.2
20260506142520 54 328 3.0 11.0 0.00 0.00 0.00 79 1015.1
20260506142018 54 338 3.0 11.0 0.00 0.00 0.00 79 1014.6
20260506141534 54 62 5.0 15.0 0.00 0.00 0.00 79 1014.3
20260506141018 54 67 7.0 15.0 0.00 0.00 0.00 79 1014.3
20260506140525 54 24 6.0 13.0 0.00 0.00 0.00 79 1014.3
20260506140037 54 305 6.0 13.0 0.00 0.00 0.00 79 1014.2
20260506135518 53 28 4.0 12.0 0.00 0.00 0.00 80 1014.1
20260506135018 53 63 4.0 11.0 0.00 0.00 0.00 81 1014.0
20260506134539 53 23 5.0 12.0 0.00 0.00 0.00 81 1013.8
20260506134020 53 323 4.0 14.0 0.00 0.00 0.00 81 1013.8
20260506133518 53 51 5.0 14.0 0.00 0.00 0.00 82 1013.8
20260506133045 53 10 4.0 11.0 0.00 0.00 0.00 82 1013.7
20260506132520 53 340 4.0 11.0 0.00 0.00 0.00 83 1013.7
20260506132020 53 15 5.0 13.0 0.00 0.00 0.00 82 1013.5
20260506131538 53 340 5.0 13.0 0.00 0.00 0.00 82 1013.3
20260506131020 53 352 6.0 12.0 0.00 0.00 0.00 82 1013.5
20260506130520 53 5 5.0 11.0 0.00 0.00 0.00 81 1013.4
20260506130037 53 315 5.0 11.0 0.00 0.00 0.00 81 1013.5
20260506125517 53 11 4.0 10.0 0.00 0.00 0.00 81 1013.4
20260506125018 53 10 3.0 13.0 0.00 0.00 0.00 81 1013.4
20260506124536 53 28 6.0 14.0 0.00 0.00 0.00 81 1013.5
20260506124018 53 40 6.0 14.0 0.00 0.00 0.00 80 1013.3
20260506123521 53 19 5.0 13.0 0.00 0.00 0.00 80 1013.2
20260506123034 53 332 4.0 14.0 0.00 0.00 0.00 80 1013.3
20260506122520 53 352 6.0 14.0 0.00 0.00 0.00 80 1013.2
20260506122021 53 22 5.0 13.0 0.00 0.00 0.00 79 1013.2
20260506121539 53 26 7.0 14.0 0.00 0.00 0.00 79 1013.1
20260506121021 53 22 5.0 14.0 0.00 0.00 0.00 79 1013.0
20260506120518 53 53 4.0 13.0 0.00 0.00 0.00 79 1013.2
20260506120040 54 331 3.0 14.0 0.00 0.00 0.00 79 1013.2
20260506115521 53 349 4.0 14.0 0.00 0.00 0.00 79 1013.0
20260506115019 54 42 6.0 16.0 0.00 0.00 0.00 78 1012.8
20260506114535 54 360 6.0 16.0 0.00 0.00 0.00 78 1013.0
20260506114021 54 44 4.0 12.0 0.00 0.00 0.00 77 1012.8
20260506113518 54 328 6.0 13.0 0.00 0.00 0.00 77 1012.5
20260506113038 54 23 5.0 13.0 0.00 0.00 0.00 77 1012.3
20260506112520 55 327 6.0 14.0 0.00 0.00 0.00 76 1012.6
20260506112017 55 340 6.0 14.0 0.00 0.00 0.00 75 1012.5
20260506111539 55 13 5.0 12.0 0.00 0.00 0.00 75 1012.2
20260506111020 55 13 5.0 12.0 0.00 0.00 0.00 75 1012.1
20260506110521 55 335 5.0 11.0 0.00 0.00 0.00 75 1012.1
20260506110038 55 5 3.0 11.0 0.00 0.00 0.00 74 1011.9
20260506105518 55 5 4.0 11.0 0.00 0.00 0.00 74 1012.0
20260506105018 55 40 4.0 11.0 0.00 0.00 0.00 74 1011.8
20260506104545 55 340 3.0 11.0 0.00 0.00 0.00 73 1011.6
20260506104023 55 82 4.0 13.0 0.00 0.00 0.00 73 1011.6
20260506103520 55 5 7.0 13.0 0.00 0.00 0.00 72 1011.5
20260506103041 56 51 5.0 12.0 0.00 0.00 0.00 72 1011.4
20260506102521 56 336 3.0 9.0 0.00 0.00 0.00 72 1011.2
20260506102021 56 5 3.0 9.0 0.00 0.00 0.00 72 1011.2
20260506101545 56 37 4.0 11.0 0.00 0.00 0.00 72 1011.2
20260506101023 56 298 5.0 11.0 0.00 0.00 0.00 72 1011.1
20260506100523 56 347 5.0 11.0 0.00 0.00 0.00 72 1011.0
20260506100034 56 360 4.0 10.0 0.00 0.00 0.00 72 1010.9
20260506095520 56 32 4.0 10.0 0.00 0.00 0.00 72 1010.9
20260506095021 56 9 3.0 10.0 0.00 0.00 0.00 72 1010.8
20260506094540 56 40 5.0 10.0 0.00 0.00 0.00 72 1010.8
20260506094020 56 352 3.0 10.0 0.00 0.00 0.00 72 1010.8
20260506093522 57 342 5.0 10.0 0.00 0.00 0.00 72 1010.9
20260506093038 57 76 4.0 10.0 0.00 0.00 0.00 72 1010.8
20260506092522 57 329 6.0 10.0 0.00 0.00 0.00 71 1010.7
20260506092019 57 25 4.0 10.0 0.00 0.00 0.00 71 1010.7
20260506091538 57 78 4.0 10.0 0.00 0.00 0.00 71 1010.6
20260506091020 57 352 4.0 10.0 0.00 0.00 0.00 72 1010.5
20260506090524 58 67 3.0 9.0 0.00 0.00 0.00 73 1010.4
20260506090037 58 351 2.0 10.0 0.00 0.00 0.00 73 1010.4
20260506085523 58 53 3.0 10.0 0.00 0.00 0.00 73 1010.5
20260506085021 58 29 3.0 9.0 0.00 0.00 0.00 73 1010.4
20260506084541 58 22 3.0 9.0 0.00 0.00 0.00 72 1010.3
20260506084020 58 332 3.0 9.0 0.00 0.00 0.00 73 1010.2
20260506083524 58 351 2.0 8.0 0.00 0.00 0.00 73 1010.3
20260506083041 58 41 4.0 8.0 0.00 0.00 0.00 73 1010.2
20260506082521 58 344 3.0 10.0 0.00 0.00 0.00 72 1010.2
20260506082021 58 347 3.0 10.0 0.00 0.00 0.00 72 1010.2
20260506081538 58 328 4.0 8.0 0.00 0.00 0.00 72 1010.3
20260506081028 58 352 3.0 5.0 0.00 0.00 0.00 72 1009.9
20260506080520 58 61 2.0 7.0 0.00 0.00 0.00 73 1009.8
20260506073519 58 17 2.0 9.0 0.00 0.00 0.00 74 1009.9
20260506073039 58 30 3.0 12.0 0.00 0.00 0.00 74 1009.8
20260506072519 58 32 4.0 12.0 0.00 0.00 0.00 74 1010.0
20260506072021 58 53 6.0 12.0 0.00 0.00 0.00 73 1010.1
20260506071537 58 37 4.0 10.0 0.00 0.00 0.00 74 1010.1
20260506071023 58 360 4.0 11.0 0.00 0.00 0.00 74 1010.1
20260506070522 58 19 4.0 11.0 0.00 0.00 0.00 74 1010.0
20260506062021 59 17 4.0 11.0 0.00 0.00 0.00 74 1009.9
20260506061538 59 323 4.0 11.0 0.00 0.00 0.00 74 1010.0
20260506061020 60 38 5.0 11.0 0.00 0.00 0.00 74 1009.9
20260506060522 60 352 4.0 11.0 0.00 0.00 0.00 74 1010.0
20260506051021 61 10 5.0 15.0 0.00 0.00 0.00 75 1010.1
20260506050523 61 311 5.0 12.0 0.00 0.00 0.00 75 1010.0
20260506045025 62 338 5.0 12.0 0.00 0.00 0.00 75 1010.0
20260506044539 62 345 3.0 10.0 0.00 0.00 0.00 75 1009.8
20260506044021 62 325 4.0 13.0 0.00 0.00 0.00 75 1009.8
20260506043523 62 281 7.0 14.0 0.00 0.00 0.00 75 1009.7
20260506043038 62 32 6.0 14.0 0.00 0.00 0.00 75 1009.7
20260506042524 63 37 7.0 14.0 0.00 0.00 0.00 74 1009.7
20260506042021 63 352 6.0 12.0 0.00 0.00 0.00 75 1009.7
20260506041536 63 348 4.0 12.0 0.00 0.00 0.00 74 1009.6
20260506041022 63 336 6.0 11.0 0.00 0.00 0.00 75 1009.4
20260506040522 63 15 5.0 11.0 0.00 0.00 0.00 75 1009.3
20260506040039 64 5 5.0 13.0 0.00 0.00 0.00 75 1009.2
20260506035522 64 122 4.0 14.0 0.00 0.00 0.00 75 1009.3
20260506035023 64 346 7.0 14.0 0.00 0.00 0.00 74 1009.2
20260506034538 64 352 6.0 14.0 0.00 0.00 0.00 74 1009.2
20260506034021 65 322 4.0 12.0 0.00 0.00 0.00 74 1009.0
20260506033521 65 308 5.0 14.0 0.00 0.00 0.00 74 1009.0
20260506033041 65 329 5.0 14.0 0.00 0.00 0.00 74 1009.0
20260506032520 66 352 6.0 14.0 0.00 0.00 0.00 73 1009.1
20260506032021 66 306 6.0 13.0 0.00 0.00 0.00 73 1008.9
20260506031538 67 15 5.0 13.0 0.00 0.00 0.00 73 1008.9
20260506031019 67 298 4.0 10.0 0.00 0.00 0.00 73 1008.6
20260506030525 68 350 5.0 13.0 0.00 0.00 0.00 72 1008.5
20260506030037 68 325 5.0 13.0 0.00 0.00 0.00 72 1008.4
20260506025519 69 352 4.0 11.0 0.00 0.00 0.00 72 1008.4
20260506025021 69 55 4.0 11.0 0.00 0.00 0.00 72 1008.2
20260506024536 69 344 5.0 11.0 0.00 0.00 0.00 72 1008.2
20260506024023 69 336 3.0 11.0 0.00 0.00 0.00 72 1007.8
20260506023519 69 323 4.0 11.0 0.00 0.00 0.00 72 1007.7
20260506023051 69 63 5.0 12.0 0.00 0.00 0.00 72 1007.5
20260506022521 70 10 6.0 12.0 0.00 0.00 0.00 71 1007.4
20260506022021 70 305 5.0 12.0 0.00 0.00 0.00 71 1007.3
20260506021540 70 328 6.0 12.0 0.00 0.00 0.00 71 1007.3
20260506021023 71 360 4.0 11.0 0.00 0.00 0.00 71 1007.2
20260506020521 71 339 5.0 12.0 0.00 0.00 0.00 70 1006.9
20260506020039 72 40 6.0 12.0 0.00 0.00 0.00 70 1006.7
20260506015521 72 351 4.0 10.0 0.00 0.00 0.00 70 1006.8
20260506015026 73 13 4.0 10.0 0.00 0.00 0.00 69 1006.8
20260506014540 73 352 3.0 8.0 0.00 0.00 0.00 68 1006.8
20260506014019 73 38 3.0 8.0 0.00 0.00 0.00 68 1006.3
20260506013521 73 5 2.0 9.0 0.00 0.00 0.00 68 1006.6
20260506013037 73 10 4.0 9.0 0.00 0.00 0.00 67 1006.5
20260506012521 73 43 2.0 10.0 0.00 0.00 0.00 67 1006.5
20260506012024 73 344 3.0 10.0 0.00 0.00 0.00 67 1006.6
20260506011535 73 51 3.0 14.0 0.00 0.00 0.00 66 1006.4
20260506011021 73 29 5.0 14.0 0.00 0.00 0.00 66 1006.1
20260506010521 74 352 5.0 12.0 0.00 0.00 0.00 65 1006.2
20260506010049 74 15 4.0 12.0 0.00 0.00 0.00 65 1006.1
20260506005520 74 352 6.0 12.0 0.00 0.00 0.00 64 1005.5
20260506005021 75 317 5.0 11.0 0.00 0.00 0.00 64 1005.5
20260506004543 75 48 2.0 13.0 0.00 0.00 0.00 65 1006.0
20260506004021 75 32 3.0 13.0 0.00 0.00 0.00 64 1005.7
20260506003521 75 329 6.0 11.0 0.00 0.00 0.00 64 1005.8
20260506003038 76 327 4.0 11.0 0.00 0.00 0.00 64 1005.8
20260506002519 76 307 4.0 11.0 0.00 0.00 0.00 64 1005.7
20260506002021 77 321 4.0 11.0 0.00 0.00 0.00 63 1005.7
20260506001544 78 334 4.0 13.0 0.00 0.00 0.00 63 1005.7
20260506001021 78 287 5.0 13.0 0.00 0.00 0.00 62 1005.6
20260506000521 79 32 3.0 12.0 0.00 0.00 0.00 61 1005.3
20260506000037 79 326 4.0 12.0 0.00 0.00 0.00 60 1005.1
20260505235523 79 352 3.0 9.0 0.00 0.00 0.00 59 1005.1
20260505235025 80 12 3.0 13.0 0.00 0.00 0.00 60 1005.1
20260505234556 80 336 4.0 13.0 0.00 0.00 0.00 60 1005.1
20260505234021 81 324 4.0 15.0 0.00 0.00 0.00 58 1004.9
20260505233522 81 352 5.0 15.0 0.00 0.00 0.00 57 1005.0
20260505233039 82 5 6.0 17.0 0.00 0.00 0.00 56 1005.0
20260505232522 83 5 7.0 17.0 0.00 0.00 0.00 55 1004.7
20260505232022 84 299 5.0 10.0 0.00 0.00 0.00 52 1004.6
20260505231539 85 336 2.0 10.0 0.00 0.00 0.00 50 1004.7
20260505231021 85 331 5.0 11.0 0.00 0.00 0.00 49 1004.5
20260505230519 85 276 5.0 13.0 0.00 0.00 0.00 48 1004.4
20260505230038 86 325 4.0 13.0 0.00 0.00 0.00 47 1004.2
20260505225521 86 348 4.0 10.0 0.00 0.00 0.00 46 1004.1
20260505225022 87 66 5.0 13.0 0.00 0.00 0.00 46 1004.2
20260505224539 88 331 6.0 13.0 0.00 0.00 0.00 45 1004.1
20260505224021 89 43 1.0 4.0 0.00 0.00 0.00 50 1004.1
20260505223528 90 0 0.0 3.0 0.00 0.00 0.00 51 1003.9
20260505223040 89 0 1.0 3.0 0.00 0.00 0.00 50 1003.6
20260505222522 90 0 1.0 2.0 0.00 0.00 0.00 51 1003.5
20260505222022 90 161 0.0 4.0 0.00 0.00 0.00 52 1003.6
20260505221532 90 163 0.0 4.0 0.00 0.00 0.00 51 1003.4
20260505221027 90 207 1.0 4.0 0.00 0.00 0.00 51 1003.4
20260505220519 90 325 1.0 4.0 0.00 0.00 0.00 51 1003.6
20260505220036 90 302 0.0 3.0 0.00 0.00 0.00 51 1003.7
20260505215522 90 293 0.0 2.0 0.00 0.00 0.00 50 1003.8
20260505215021 90 0 0.0 2.0 0.00 0.00 0.00 51 1003.8
20260505214559 90 227 1.0 3.0 0.00 0.00 0.00 51 1003.9
20260505214022 90 244 1.0 4.0 0.00 0.00 0.00 50 1003.8
20260505213521 91 247 1.0 10.0 0.00 0.00 0.00 50 1003.8
20260505213042 91 135 3.0 10.0 0.00 0.00 0.00 50 1004.0
20260505212524 91 163 0.0 6.0 0.00 0.00 0.00 49 1004.0
20260505212021 90 214 1.0 6.0 0.00 0.00 0.00 52 1004.1
20260505211535 90 88 1.0 5.0 0.00 0.00 0.00 50 1004.0
20260505211024 91 165 1.0 5.0 0.00 0.00 0.00 51 1004.2
20260505210520 90 0 0.0 5.0 0.00 0.00 0.00 52 1004.2
20260505210040 91 211 1.0 5.0 0.00 0.00 0.00 53 1004.2
20260505205522 91 225 1.0 4.0 0.00 0.00 0.00 53 1004.2
20260505205022 90 202 1.0 4.0 0.00 0.00 0.00 54 1004.3
20260505204548 89 138 1.0 4.0 0.00 0.00 0.00 56 1004.3
20260505204022 91 210 1.0 5.0 0.00 0.00 0.00 54 1004.4
20260505203521 90 339 1.0 5.0 0.00 0.00 0.00 54 1004.6
20260505203046 89 334 1.0 9.0 0.00 0.00 0.00 57 1004.7
20260505202522 90 136 2.0 9.0 0.00 0.00 0.00 55 1004.6
20260505202022 89 179 1.0 7.0 0.00 0.00 0.00 57 1004.6
20260505201539 89 186 1.0 8.0 0.00 0.00 0.00 54 1004.7
20260505201021 90 216 1.0 8.0 0.00 0.00 0.00 53 1004.7
20260505200522 90 229 2.0 7.0 0.00 0.00 0.00 54 1004.5
20260505200046 89 199 1.0 4.0 0.00 0.00 0.00 55 1004.8
20260505195522 90 311 1.0 5.0 0.00 0.00 0.00 56 1004.8
20260505195022 89 242 1.0 5.0 0.00 0.00 0.00 57 1004.8
20260505194544 88 183 1.0 4.0 0.00 0.00 0.00 57 1004.8
20260505194023 88 265 1.0 5.0 0.00 0.00 0.00 57 1004.8
20260505193523 89 158 2.0 5.0 0.00 0.00 0.00 56 1004.9
20260505193042 88 225 1.0 4.0 0.00 0.00 0.00 60 1004.7
20260505192523 88 360 1.0 5.0 0.00 0.00 0.00 59 1004.8
20260505192023 87 148 1.0 5.0 0.00 0.00 0.00 59 1004.9
20260505191538 87 261 2.0 6.0 0.00 0.00 0.00 58 1004.9
20260505191023 87 182 1.0 6.0 0.00 0.00 0.00 61 1004.8
20260505190523 87 196 2.0 4.0 0.00 0.00 0.00 61 1004.9
20260505190039 86 203 1.0 7.0 0.00 0.00 0.00 61 1004.9
20260505185522 85 28 2.0 7.0 0.00 0.00 0.00 62 1004.9
20260505185021 85 229 1.0 7.0 0.00 0.00 0.00 63 1005.0
20260505184538 84 216 2.0 7.0 0.00 0.00 0.00 63 1004.9
20260505184021 84 227 1.0 6.0 0.00 0.00 0.00 64 1005.1
20260505183521 84 236 1.0 6.0 0.00 0.00 0.00 64 1005.0
20260505183038 84 169 1.0 9.0 0.00 0.00 0.00 65 1005.0
20260505182522 84 170 2.0 9.0 0.00 0.00 0.00 64 1005.0
20260505182021 84 211 1.0 5.0 0.00 0.00 0.00 64 1005.0
20260505181537 84 195 1.0 7.0 0.00 0.00 0.00 64 1005.2
20260505181021 84 188 2.0 9.0 0.00 0.00 0.00 63 1005.2
20260505180522 84 360 2.0 9.0 0.00 0.00 0.00 64 1005.1
20260505175523 84 191 3.0 7.0 0.00 0.00 0.00 64 1005.0
20260505175025 84 165 1.0 6.0 0.00 0.00 0.00 63 1005.0
20260505174556 84 175 2.0 7.0 0.00 0.00 0.00 64 1005.0
20260505174022 83 209 2.0 7.0 0.00 0.00 0.00 64 1005.2
20260505173524 83 134 1.0 7.0 0.00 0.00 0.00 65 1005.0
20260505173044 83 159 3.0 7.0 0.00 0.00 0.00 65 1005.0
20260505172521 82 215 2.0 7.0 0.00 0.00 0.00 65 1005.2
20260505172021 82 263 1.0 7.0 0.00 0.00 0.00 66 1005.2
20260505171537 82 209 2.0 7.0 0.00 0.00 0.00 66 1005.4
20260505171021 81 148 1.0 8.0 0.00 0.00 0.00 66 1005.2
20260505170521 82 208 3.0 8.0 0.00 0.00 0.00 66 1005.5
20260505170037 82 200 2.0 9.0 0.00 0.00 0.00 66 1005.2
20260505165522 82 263 2.0 9.0 0.00 0.00 0.00 66 1005.4